Find Luch

NORAD ID: 23426 Int'l Des: 1994-082 Owner: VKS Country: RU operational
HEOCIRCULAR

当前视图

正在加载3D地球...

About Luch

Luch (NORAD 23426) is a satellite launched Dec 16, 1994 by VKS of RU. It operates in HEO, CIRCULAR orbit with a mass of 2400.00 kg.

即将过境

Passes for default location (London). Set your location on the main map for personalized predictions.

高度历史

Loading altitude history...

两行轨道根数

1 23426U 94082A 26195.48448821 -.00000063 00000-0 00000-0 0 9992
2 23426 14.7423 354.3834 0005799 205.6060 154.3937 1.00158894115532
Epoch: Jul 14, 2026 • Age: 9 hours

当前状态

高度 35810.2 km
远地点 / 近地点 N/A
速度 3.07 km/s
星下点 10.87°N, 111.63°W
发射日期 Dec 16, 1994
运行时间 31.5 years
类型 other

技术详情

分类 Payload
质量 2400.00 kg
干质量 2200.00 kg
总质量 2400.00 kg
长度 6.60 m
直径 4.10 m
跨度 16.00 m
形状 Cyl + 2 Pan + 2 Dish
制造商 NPOPMR
平台类型 KAUR-4 Al'tair
阶段状态 In Orbit
所有者/国家 VKS/RU

Most Searched